User: anonymous   Login
Location: Unspecified
(40.8819°N, 0.0000°E)
Time: 22:36:22
(UTC+00:00)
Language:

STARS - Orbit

View from above orbital plane
View from above orbital plane
View from above satellite
View from above satellite

Ground track
Ground track

The orbit data is extracted from the following two-line orbital elements,

1 33498U 09002G   25165.55011123  .00004442  00000-0  44513-3 0  9999
2 33498  98.1249  94.8585 0007707 309.6419  50.4118 14.91882900884016
Epoch (UTC): 14 June 2025 13:12:09
Eccentricity: 0.0007707
inclination: 98.1249°
perigee height: 586 km
apogee height: 597 km
right ascension of ascending node: 94.8585°
argument of perigee: 309.6419°
revolutions per day: 14.91882900
mean anomaly at epoch: 50.4118°
orbit number at epoch: 88401

The dashed part of the orbit path shows where the satellite is in the earth's shadow,  

DLR